Time,TemperatureF,DewpointF,PressureIn,WindDirection,WindDirectionDegrees,WindSpeedMPH,WindSpeedGustMPH,Humidity,HourlyPrecipIn,Conditions,Clouds,dailyrainin,SoftwareType,DateUTC
2013-07-16 00:00:00,83.8,70.3,30.14,WSW,247,3.0,6.0,64,0.00,OVC,OVC,0.00,WeatherDisplay:10.31,2013-07-16 04:00:00,
2013-07-16 00:05:00,83.8,70.8,30.14,WSW,247,5.0,7.0,65,0.00,OVC,OVC,0.00,WeatherDisplay:10.31,2013-07-16 04:05:00,
2013-07-16 00:10:00,83.8,70.8,30.14,WSW,246,3.0,6.0,65,0.00,OVC,OVC,0.00,WeatherDisplay:10.31,2013-07-16 04:10:00,
2013-07-16 00:20:00,83.6,70.6,30.14,WSW,242,3.0,7.0,65,0.00,OVC,OVC,0.00,WeatherDisplay:10.31,2013-07-16 04:20:00,
2013-07-16 00:25:00,83.6,71.0,30.14,WSW,258,3.0,6.0,66,0.00,OVC,OVC,0.00,WeatherDisplay:10.31,2013-07-16 04:25:00,
2013-07-16 00:30:00,83.4,70.8,30.14,WSW,258,5.0,6.0,66,0.00,OVC,OVC,0.00,WeatherDisplay:10.31,2013-07-16 04:30:00,
2013-07-16 00:40:00,83.2,70.7,30.14,WSW,247,3.0,6.0,66,0.00,OVC,OVC,0.00,WeatherDisplay:10.31,2013-07-16 04:40:00,
2013-07-16 00:50:00,83.2,70.7,30.14,WSW,247,2.0,7.0,66,0.00,OVC,OVC,0.00,WeatherDisplay:10.31,2013-07-16 04:50:00,
2013-07-16 01:00:00,83.0,70.5,30.14,WSW,245,3.0,7.0,66,0.00,OVC,OVC,0.00,WeatherDisplay:10.31,2013-07-16 05:00:00,
2013-07-16 01:05:00,83.0,70.5,30.13,WSW,251,6.0,7.0,66,0.00,OVC,OVC,0.00,WeatherDisplay:10.31,2013-07-16 05:05:00,
2013-07-16 01:10:00,83.0,70.4,30.13,WSW,247,3.0,6.0,66,0.00,OVC,OVC,0.00,WeatherDisplay:10.31,2013-07-16 05:10:00,
2013-07-16 01:20:00,82.7,70.6,30.13,WSW,247,6.0,7.0,67,0.00,OVC,OVC,0.00,WeatherDisplay:10.31,2013-07-16 05:20:00,
2013-07-16 01:30:00,82.4,70.3,30.13,WSW,247,5.0,7.0,67,0.00,OVC,OVC,0.00,WeatherDisplay:10.31,2013-07-16 05:30:00,
2013-07-16 01:40:00,82.2,70.6,30.13,WSW,247,3.0,9.0,68,0.00,OVC,OVC,0.00,WeatherDisplay:10.31,2013-07-16 05:40:00,
2013-07-16 01:50:00,82.1,70.5,30.13,WSW,243,3.0,6.0,68,0.00,OVC,OVC,0.00,WeatherDisplay:10.31,2013-07-16 05:50:00,
2013-07-16 01:55:00,82.0,70.4,30.13,WSW,239,5.0,7.0,68,0.00,OVC,OVC,0.00,WeatherDisplay:10.31,2013-07-16 05:55:00,
2013-07-16 02:00:00,82.0,70.4,30.13,WSW,243,3.0,6.0,68,0.00,OVC,OVC,0.00,WeatherDisplay:10.31,2013-07-16 06:00:00,
2013-07-16 02:10:00,81.8,70.6,30.13,WSW,247,5.0,6.0,69,0.00,OVC,OVC,0.00,WeatherDisplay:10.31,2013-07-16 06:10:00,
2013-07-16 02:20:00,81.6,70.4,30.12,WSW,247,5.0,6.0,69,0.00,OVC,OVC,0.00,WeatherDisplay:10.31,2013-07-16 06:20:00,
2013-07-16 02:25:00,81.6,70.4,30.12,WSW,247,5.0,6.0,69,0.00,OVC,OVC,0.00,WeatherDisplay:10.31,2013-07-16 06:25:00,
2013-07-16 02:30:00,81.5,70.4,30.12,WSW,247,5.0,7.0,69,0.00,OVC,OVC,0.00,WeatherDisplay:10.31,2013-07-16 06:30:00,
2013-07-16 02:40:00,81.4,70.2,30.12,WSW,248,3.0,9.0,69,0.00,OVC,OVC,0.00,WeatherDisplay:10.31,2013-07-16 06:40:00,
2013-07-16 02:45:00,81.6,70.4,30.12,WSW,243,3.0,8.0,69,0.00,OVC,OVC,0.00,WeatherDisplay:10.31,2013-07-16 06:45:00,
2013-07-16 02:50:00,81.6,70.4,30.12,WSW,244,2.0,7.0,69,0.00,OVC,OVC,0.00,WeatherDisplay:10.31,2013-07-16 06:50:00,
2013-07-16 03:00:00,81.6,70.0,30.12,WNW,290,3.0,9.0,68,0.00,OVC,OVC,0.00,WeatherDisplay:10.31,2013-07-16 07:00:00,
2013-07-16 03:05:00,81.6,70.4,30.12,WNW,286,3.0,7.0,69,0.00,OVC,OVC,0.00,WeatherDisplay:10.31,2013-07-16 07:05:00,
2013-07-16 03:10:00,81.6,70.4,30.12,WNW,285,1.0,7.0,69,0.00,OVC,OVC,0.00,WeatherDisplay:10.31,2013-07-16 07:10:00,
2013-07-16 03:20:00,81.6,70.4,30.12,WNW,287,3.0,9.0,69,0.00,OVC,OVC,0.00,WeatherDisplay:10.31,2013-07-16 07:20:00,
2013-07-16 03:30:00,81.4,70.2,30.12,West,281,3.0,7.0,69,0.00,OVC,OVC,0.00,WeatherDisplay:10.31,2013-07-16 07:30:00,
2013-07-16 03:40:00,81.2,70.5,30.12,WNW,288,5.0,9.0,70,0.00,OVC,OVC,0.00,WeatherDisplay:10.31,2013-07-16 07:40:00,
2013-07-16 03:50:00,81.1,70.4,30.12,WNW,284,5.0,10.0,70,0.00,OVC,OVC,0.00,WeatherDisplay:10.31,2013-07-16 07:50:00,
2013-07-16 04:00:00,81.1,70.4,30.12,WNW,296,1.0,6.0,70,0.00,OVC,OVC,0.00,WeatherDisplay:10.31,2013-07-16 08:00:00,
2013-07-16 04:05:00,81.0,70.3,30.12,WNW,291,5.0,7.0,70,0.00,OVC,OVC,0.00,WeatherDisplay:10.31,2013-07-16 08:05:00,
2013-07-16 04:10:00,80.9,70.2,30.12,WNW,289,3.0,7.0,70,0.00,OVC,OVC,0.00,WeatherDisplay:10.31,2013-07-16 08:10:00,
2013-07-16 04:20:00,80.9,70.2,30.12,WNW,292,5.0,6.0,70,0.00,OVC,OVC,0.00,WeatherDisplay:10.31,2013-07-16 08:20:00,
2013-07-16 04:30:00,80.9,70.2,30.12,WNW,292,2.0,12.0,70,0.00,OVC,OVC,0.00,WeatherDisplay:10.31,2013-07-16 08:30:00,
2013-07-16 04:40:00,80.9,70.2,30.12,WNW,288,1.0,10.0,70,0.00,OVC,OVC,0.00,WeatherDisplay:10.31,2013-07-16 08:40:00,
2013-07-16 04:50:00,80.9,70.2,30.12,WNW,288,2.0,7.0,70,0.00,OVC,OVC,0.00,WeatherDisplay:10.31,2013-07-16 08:50:00,
2013-07-16 05:00:00,80.7,70.0,30.12,WNW,284,3.0,10.0,70,0.00,OVC,OVC,0.00,WeatherDisplay:10.31,2013-07-16 09:00:00,
2013-07-16 05:10:00,80.7,70.0,30.13,WNW,290,3.0,9.0,70,0.00,OVC,OVC,0.00,WeatherDisplay:10.31,2013-07-16 09:10:00,
2013-07-16 05:20:00,80.5,69.8,30.13,WNW,292,1.0,6.0,70,0.00,OVC,OVC,0.00,WeatherDisplay:10.31,2013-07-16 09:20:00,
2013-07-16 05:30:00,80.3,69.6,30.13,WNW,282,3.0,7.0,70,0.00,OVC,OVC,0.00,WeatherDisplay:10.31,2013-07-16 09:30:00,
2013-07-16 05:40:00,80.3,69.6,30.13,WNW,292,2.0,7.0,70,0.00,OVC,OVC,0.00,WeatherDisplay:10.31,2013-07-16 09:40:00,
2013-07-16 05:50:00,80.1,69.4,30.14,WNW,292,3.0,7.0,70,0.00,OVC,OVC,0.00,WeatherDisplay:10.31,2013-07-16 09:50:00,
2013-07-16 06:00:00,79.9,69.7,30.14,WNW,292,2.0,6.0,71,0.00,BKN,BKN,0.00,WeatherDisplay:10.31,2013-07-16 10:00:00,
2013-07-16 06:05:00,79.9,69.7,30.14,WNW,292,2.0,6.0,71,0.00,OVC,OVC,0.00,WeatherDisplay:10.31,2013-07-16 10:05:00,
2013-07-16 06:10:00,79.9,69.7,30.14,WNW,292,1.0,5.0,71,0.00,OVC,OVC,0.00,WeatherDisplay:10.31,2013-07-16 10:10:00,
2013-07-16 06:20:00,79.9,69.7,30.14,WNW,292,1.0,3.0,71,0.00,OVC,OVC,0.00,WeatherDisplay:10.31,2013-07-16 10:20:00,
2013-07-16 06:30:00,79.8,69.6,30.14,NNW,331,3.0,5.0,71,0.00,OVC,OVC,0.00,WeatherDisplay:10.31,2013-07-16 10:30:00,
2013-07-16 06:40:00,79.9,69.2,30.14,NW,321,3.0,9.0,70,0.00,OVC,OVC,0.00,WeatherDisplay:10.31,2013-07-16 10:40:00,
2013-07-16 06:50:00,79.9,69.2,30.14,NW,324,3.0,7.0,70,0.00,OVC,OVC,0.00,WeatherDisplay:10.31,2013-07-16 10:50:00,
2013-07-16 07:00:00,80.1,69.4,30.14,NW,309,2.0,7.0,70,0.00,OVC,OVC,0.00,WeatherDisplay:10.31,2013-07-16 11:00:00,
2013-07-16 07:05:00,80.3,69.6,30.15,NW,314,1.0,7.0,70,0.00,OVC,OVC,0.00,WeatherDisplay:10.31,2013-07-16 11:05:00,
2013-07-16 07:10:00,80.3,69.6,30.15,NW,323,3.0,7.0,70,0.00,OVC,OVC,0.00,WeatherDisplay:10.31,2013-07-16 11:10:00,
2013-07-16 07:20:00,80.5,69.4,30.15,NW,326,5.0,10.0,69,0.00,OVC,OVC,0.00,WeatherDisplay:10.31,2013-07-16 11:20:00,
2013-07-16 07:30:00,80.7,69.6,30.15,NNW,330,3.0,12.0,69,0.00,FEW,FEW,0.00,WeatherDisplay:10.31,2013-07-16 11:30:00,
2013-07-16 07:40:00,80.9,69.8,30.15,NNW,333,1.0,9.0,69,0.00,FEW,FEW,0.00,WeatherDisplay:10.31,2013-07-16 11:40:00,
2013-07-16 07:50:00,81.2,70.1,30.16,NNW,335,1.0,6.0,69,0.00,FEW,FEW,0.00,WeatherDisplay:10.31,2013-07-16 11:50:00,
2013-07-16 08:00:00,81.8,70.2,30.16,NW,325,5.0,9.0,68,0.00,FEW,FEW,0.00,WeatherDisplay:10.31,2013-07-16 12:00:00,
2013-07-16 08:05:00,82.1,70.1,30.16,NNW,335,1.0,8.0,67,0.00,FEW,FEW,0.00,WeatherDisplay:10.31,2013-07-16 12:05:00,
2013-07-16 08:10:00,82.4,70.3,30.16,NNW,333,5.0,12.0,67,0.00,FEW,FEW,0.00,WeatherDisplay:10.31,2013-07-16 12:10:00,
2013-07-16 08:20:00,83.0,70.5,30.16,NNW,328,7.0,9.0,66,0.00,FEW,FEW,0.00,WeatherDisplay:10.31,2013-07-16 12:20:00,
2013-07-16 08:30:00,83.6,70.6,30.16,NNW,327,5.0,9.0,65,0.00,FEW,FEW,0.00,WeatherDisplay:10.31,2013-07-16 12:30:00,
2013-07-16 08:40:00,84.1,71.1,30.16,NNW,337,1.0,5.0,65,0.00,FEW,FEW,0.00,WeatherDisplay:10.31,2013-07-16 12:40:00,
2013-07-16 08:50:00,84.7,71.2,30.16,North,356,5.0,8.0,64,0.00,FEW,FEW,0.00,WeatherDisplay:10.31,2013-07-16 12:50:00,
2013-07-16 09:00:00,85.3,71.3,30.16,NNW,346,5.0,7.0,63,0.00,FEW,FEW,0.00,WeatherDisplay:10.31,2013-07-16 13:00:00,
2013-07-16 09:05:00,85.7,71.7,30.16,NNW,347,0.0,6.0,63,0.00,FEW,FEW,0.00,WeatherDisplay:10.31,2013-07-16 13:05:00,
2013-07-16 09:10:00,85.9,71.4,30.16,NNW,342,0.0,5.0,62,0.00,FEW,FEW,0.00,WeatherDisplay:10.31,2013-07-16 13:10:00,
2013-07-16 09:20:00,86.5,71.5,30.16,NNW,337,2.0,6.0,61,0.00,FEW,FEW,0.00,WeatherDisplay:10.31,2013-07-16 13:20:00,
2013-07-16 09:30:00,87.4,72.3,30.16,NNW,345,2.0,3.0,61,0.00,FEW,FEW,0.00,WeatherDisplay:10.31,2013-07-16 13:30:00,
2013-07-16 09:40:00,88.2,72.6,30.16,North,353,3.0,9.0,60,0.00,FEW,FEW,0.00,WeatherDisplay:10.31,2013-07-16 13:40:00,
2013-07-16 09:50:00,88.4,71.7,30.16,North,358,5.0,12.0,58,0.00,CLR,CLR,0.00,WeatherDisplay:10.31,2013-07-16 13:50:00,
2013-07-16 10:00:00,88.6,71.9,30.17,North,351,3.0,9.0,58,0.00,SCT,SCT,0.00,WeatherDisplay:10.31,2013-07-16 14:00:00,
2013-07-16 10:10:00,88.6,72.4,30.17,NNW,342,1.0,5.0,59,0.00,BKN,BKN,0.00,WeatherDisplay:10.31,2013-07-16 14:10:00,
2013-07-16 10:20:00,89.3,72.6,30.16,NW,305,1.0,7.0,58,0.00,FEW,FEW,0.00,WeatherDisplay:10.31,2013-07-16 14:20:00,
2013-07-16 10:30:00,89.9,72.6,30.16,NNW,336,2.0,6.0,57,0.00,FEW,FEW,0.00,WeatherDisplay:10.31,2013-07-16 14:30:00,
2013-07-16 10:40:00,91.2,72.7,30.16,NW,314,0.0,6.0,55,0.00,FEW,FEW,0.00,WeatherDisplay:10.31,2013-07-16 14:40:00,
2013-07-16 10:45:00,91.6,72.0,30.16,NW,309,1.0,8.0,53,0.00,FEW,FEW,0.00,WeatherDisplay:10.31,2013-07-16 14:45:00,
2013-07-16 10:50:00,91.8,71.1,30.17,NNW,332,5.0,8.0,51,0.00,FEW,FEW,0.00,WeatherDisplay:10.31,2013-07-16 14:50:00,
2013-07-16 11:00:00,92.5,71.2,30.16,NNW,336,3.0,7.0,50,0.00,FEW,FEW,0.00,WeatherDisplay:10.31,2013-07-16 15:00:00,
2013-07-16 11:10:00,93.2,68.7,30.16,North,349,2.0,7.0,45,0.00,FEW,FEW,0.00,WeatherDisplay:10.31,2013-07-16 15:10:00,
2013-07-16 11:20:00,94.1,67.5,30.16,NNE,18,3.0,10.0,42,0.00,FEW,FEW,0.00,WeatherDisplay:10.31,2013-07-16 15:20:00,
2013-07-16 11:30:00,94.7,66.6,30.16,NNE,17,5.0,10.0,40,0.00,FEW,FEW,0.00,WeatherDisplay:10.31,2013-07-16 15:30:00,
2013-07-16 11:40:00,94.9,66.1,30.16,North,8,5.0,12.0,39,0.00,FEW,FEW,0.00,WeatherDisplay:10.31,2013-07-16 15:40:00,
2013-07-16 11:50:00,94.9,66.8,30.16,North,5,6.0,12.0,40,0.00,FEW,FEW,0.00,WeatherDisplay:10.31,2013-07-16 15:50:00,
2013-07-16 12:00:00,95.4,68.0,30.16,NNE,12,2.0,6.0,41,0.00,FEW,FEW,0.00,WeatherDisplay:10.31,2013-07-16 16:00:00,
2013-07-16 12:05:00,95.9,67.7,30.16,NNE,14,0.0,10.0,40,0.00,FEW,FEW,0.00,WeatherDisplay:10.31,2013-07-16 16:05:00,
2013-07-16 12:10:00,96.6,68.3,30.16,North,11,1.0,6.0,40,0.00,FEW,FEW,0.00,WeatherDisplay:10.31,2013-07-16 16:10:00,
2013-07-16 12:20:00,97.1,66.5,30.15,NNW,347,3.0,12.0,37,0.00,FEW,FEW,0.00,WeatherDisplay:10.31,2013-07-16 16:20:00,
2013-07-16 12:30:00,97.1,66.5,30.15,NNE,15,3.0,8.0,37,0.00,FEW,FEW,0.00,WeatherDisplay:10.31,2013-07-16 16:30:00,
2013-07-16 12:40:00,97.3,67.4,30.15,North,2,2.0,8.0,38,0.00,FEW,FEW,0.00,WeatherDisplay:10.31,2013-07-16 16:40:00,
2013-07-16 12:50:00,97.8,67.9,30.14,NNW,345,3.0,10.0,38,0.00,FEW,FEW,0.00,WeatherDisplay:10.31,2013-07-16 16:50:00,
2013-07-16 13:00:00,98.0,68.8,30.14,North,353,1.0,7.0,39,0.00,FEW,FEW,0.00,WeatherDisplay:10.31,2013-07-16 17:00:00,
2013-07-16 13:10:00,98.7,67.9,30.14,North,355,5.0,10.0,37,0.00,OVC,OVC,0.00,WeatherDisplay:10.31,2013-07-16 17:10:00,
2013-07-16 13:20:00,98.5,66.9,30.14,NNE,26,5.0,10.0,36,0.00,FEW,FEW,0.00,WeatherDisplay:10.31,2013-07-16 17:20:00,
2013-07-16 13:30:00,98.5,67.7,30.14,NE,42,3.0,6.0,37,0.00,OVC,OVC,0.00,WeatherDisplay:10.31,2013-07-16 17:30:00,
2013-07-16 13:40:00,98.8,68.0,30.14,NNW,346,2.0,6.0,37,0.00,FEW,FEW,0.00,WeatherDisplay:10.31,2013-07-16 17:40:00,
2013-07-16 13:50:00,99.4,66.1,30.13,NNW,334,1.0,9.0,34,0.00,FEW,FEW,0.00,WeatherDisplay:10.31,2013-07-16 17:50:00,
2013-07-16 14:00:00,99.7,67.2,30.13,NW,318,5.0,13.0,35,0.00,FEW,FEW,0.00,WeatherDisplay:10.31,2013-07-16 18:00:00,
2013-07-16 14:05:00,99.7,66.3,30.13,NNW,340,3.0,12.0,34,0.00,FEW,FEW,0.00,WeatherDisplay:10.31,2013-07-16 18:05:00,
2013-07-16 14:10:00,99.7,66.3,30.13,North,1,2.0,12.0,34,0.00,OVC,OVC,0.00,WeatherDisplay:10.31,2013-07-16 18:10:00,
2013-07-16 14:20:00,99.7,66.3,30.13,North,353,6.0,12.0,34,0.00,FEW,FEW,0.00,WeatherDisplay:10.31,2013-07-16 18:20:00,
2013-07-16 14:30:00,99.7,67.2,30.12,North,351,1.0,10.0,35,0.00,FEW,FEW,0.00,WeatherDisplay:10.31,2013-07-16 18:30:00,
2013-07-16 14:40:00,100.2,67.6,30.12,NW,321,1.0,5.0,35,0.00,CLR,CLR,0.00,WeatherDisplay:10.31,2013-07-16 18:40:00,
2013-07-16 14:50:00,100.2,67.6,30.12,NNE,19,1.0,5.0,35,0.00,OVC,OVC,0.00,WeatherDisplay:10.31,2013-07-16 18:50:00,
2013-07-16 15:00:00,100.2,66.8,30.12,NNE,19,1.0,7.0,34,0.00,CLR,CLR,0.00,WeatherDisplay:10.31,2013-07-16 19:00:00,
2013-07-16 15:05:00,100.5,66.1,30.12,NNW,344,1.0,9.0,33,0.00,CLR,CLR,0.00,WeatherDisplay:10.31,2013-07-16 19:05:00,
2013-07-16 15:10:00,101.0,64.8,30.12,NW,310,3.0,6.0,31,0.00,OVC,OVC,0.00,WeatherDisplay:10.31,2013-07-16 19:10:00,
2013-07-16 15:20:00,100.7,66.3,30.11,North,353,1.0,12.0,33,0.00,OVC,OVC,0.00,WeatherDisplay:10.31,2013-07-16 19:20:00,
2013-07-16 15:30:00,100.2,65.0,30.11,North,7,3.0,12.0,32,0.00,FEW,FEW,0.00,WeatherDisplay:10.31,2013-07-16 19:30:00,
2013-07-16 15:40:00,99.9,63.9,30.11,North,352,6.0,7.0,31,0.00,CLR,CLR,0.00,WeatherDisplay:10.31,2013-07-16 19:40:00,
2013-07-16 15:50:00,99.9,64.8,30.11,North,355,3.0,9.0,32,0.00,CLR,CLR,0.00,WeatherDisplay:10.31,2013-07-16 19:50:00,
2013-07-16 16:00:00,100.2,64.1,30.11,NNW,332,2.0,7.0,31,0.00,FEW,FEW,0.00,WeatherDisplay:10.31,2013-07-16 20:00:00,
2013-07-16 16:05:00,100.4,66.1,30.11,North,1,1.0,7.0,33,0.00,FEW,FEW,0.00,WeatherDisplay:10.31,2013-07-16 20:05:00,
2013-07-16 16:10:00,100.7,64.5,30.10,North,357,2.0,6.0,31,0.00,FEW,FEW,0.00,WeatherDisplay:10.31,2013-07-16 20:10:00,
2013-07-16 16:20:00,100.7,65.5,30.10,North,350,5.0,10.0,32,0.00,OVC,OVC,0.00,WeatherDisplay:10.31,2013-07-16 20:20:00,
2013-07-16 16:25:00,100.4,65.2,30.10,North,6,2.0,6.0,32,0.00,FEW,FEW,0.00,WeatherDisplay:10.31,2013-07-16 20:25:00,
2013-07-16 16:30:00,100.4,63.3,30.10,North,355,0.0,12.0,30,0.00,FEW,FEW,0.00,WeatherDisplay:10.31,2013-07-16 20:30:00,
2013-07-16 16:40:00,101.0,63.9,30.10,NNW,334,3.0,7.0,30,0.00,CLR,CLR,0.00,WeatherDisplay:10.31,2013-07-16 20:40:00,
2013-07-16 16:50:00,101.5,66.1,30.10,North,7,1.0,3.0,32,0.00,FEW,FEW,0.00,WeatherDisplay:10.31,2013-07-16 20:50:00,
2013-07-16 17:00:00,101.7,62.5,30.09,NNW,348,3.0,12.0,28,0.00,FEW,FEW,0.00,WeatherDisplay:10.31,2013-07-16 21:00:00,
2013-07-16 17:05:00,101.7,63.5,30.09,NNW,346,6.0,10.0,29,0.00,FEW,FEW,0.00,WeatherDisplay:10.31,2013-07-16 21:05:00,
2013-07-16 17:10:00,101.5,62.3,30.09,North,355,1.0,12.0,28,0.00,FEW,FEW,0.00,WeatherDisplay:10.31,2013-07-16 21:10:00,
2013-07-16 17:20:00,101.0,61.9,30.09,North,4,1.0,12.0,28,0.00,FEW,FEW,0.00,WeatherDisplay:10.31,2013-07-16 21:20:00,
2013-07-16 17:30:00,100.4,61.4,30.09,NNW,344,3.0,12.0,28,0.00,FEW,FEW,0.00,WeatherDisplay:10.31,2013-07-16 21:30:00,
2013-07-16 17:40:00,100.2,62.2,30.09,North,352,3.0,8.0,29,0.00,FEW,FEW,0.00,WeatherDisplay:10.31,2013-07-16 21:40:00,
2013-07-16 17:50:00,100.2,61.2,30.09,North,350,1.0,8.0,28,0.00,FEW,FEW,0.00,WeatherDisplay:10.31,2013-07-16 21:50:00,
2013-07-16 18:00:00,99.9,59.9,30.09,North,0,1.0,10.0,27,0.00,FEW,FEW,0.00,WeatherDisplay:10.31,2013-07-16 22:00:00,
2013-07-16 18:05:00,99.7,59.8,30.09,North,357,3.0,7.0,27,0.00,FEW,FEW,0.00,WeatherDisplay:10.31,2013-07-16 22:05:00,
2013-07-16 18:10:00,99.5,60.7,30.09,North,355,2.0,7.0,28,0.00,FEW,FEW,0.00,WeatherDisplay:10.31,2013-07-16 22:10:00,
2013-07-16 18:20:00,99.0,61.2,30.10,NNW,348,2.0,10.0,29,0.00,FEW,FEW,0.00,WeatherDisplay:10.31,2013-07-16 22:20:00,
2013-07-16 18:30:00,98.2,61.5,30.10,NNW,336,0.0,9.0,30,0.00,FEW,FEW,0.00,WeatherDisplay:10.31,2013-07-16 22:30:00,
2013-07-16 18:35:00,97.8,62.0,30.10,NNW,348,2.0,6.0,31,0.00,FEW,FEW,0.00,WeatherDisplay:10.31,2013-07-16 22:35:00,
2013-07-16 18:40:00,97.5,61.8,30.10,North,3,2.0,7.0,31,0.00,FEW,FEW,0.00,WeatherDisplay:10.31,2013-07-16 22:40:00,
2013-07-16 18:50:00,96.8,62.1,30.10,NNW,342,6.0,10.0,32,0.00,FEW,FEW,0.00,WeatherDisplay:10.31,2013-07-16 22:50:00,
2013-07-16 19:00:00,96.1,62.3,30.10,NNW,342,3.0,12.0,33,0.00,FEW,FEW,0.00,WeatherDisplay:10.31,2013-07-16 23:00:00,
2013-07-16 19:05:00,95.9,63.0,30.10,NNW,343,2.0,5.0,34,0.00,FEW,FEW,0.00,WeatherDisplay:10.31,2013-07-16 23:05:00,
2013-07-16 19:10:00,95.6,63.6,30.10,NNW,346,3.0,7.0,35,0.00,FEW,FEW,0.00,WeatherDisplay:10.31,2013-07-16 23:10:00,
2013-07-16 19:20:00,94.9,63.0,30.10,NNW,347,3.0,7.0,35,0.00,FEW,FEW,0.00,WeatherDisplay:10.31,2013-07-16 23:20:00,
2013-07-16 19:30:00,94.5,63.4,30.11,North,356,1.0,3.0,36,0.00,FEW,FEW,0.00,WeatherDisplay:10.31,2013-07-16 23:30:00,
2013-07-16 19:40:00,94.0,63.8,30.11,North,4,3.0,6.0,37,0.00,FEW,FEW,0.00,WeatherDisplay:10.31,2013-07-16 23:40:00,
2013-07-16 19:45:00,93.6,64.2,30.11,North,9,3.0,7.0,38,0.00,SCT,SCT,0.00,WeatherDisplay:10.31,2013-07-16 23:45:00,
2013-07-16 19:50:00,93.4,64.0,30.11,NNE,17,2.0,5.0,38,0.00,SCT,SCT,0.00,WeatherDisplay:10.31,2013-07-16 23:50:00,
2013-07-16 20:00:00,92.9,64.3,30.11,North,7,0.0,3.0,39,0.00,SCT,SCT,0.00,WeatherDisplay:10.31,2013-07-17 00:00:00,
2013-07-16 20:05:00,92.7,64.8,30.11,NNE,23,1.0,3.0,40,0.00,SCT,SCT,0.00,WeatherDisplay:10.31,2013-07-17 00:05:00,
2013-07-16 20:10:00,92.5,64.7,30.11,North,9,2.0,6.0,40,0.00,BKN,BKN,0.00,WeatherDisplay:10.31,2013-07-17 00:10:00,
2013-07-16 20:20:00,92.1,65.0,30.11,North,360,0.0,6.0,41,0.00,BKN,BKN,0.00,WeatherDisplay:10.31,2013-07-17 00:20:00,
2013-07-16 20:30:00,91.6,65.3,30.11,North,0,0.0,3.0,42,0.00,CLR,CLR,0.00,WeatherDisplay:10.31,2013-07-17 00:30:00,
2013-07-16 20:40:00,91.1,65.5,30.11,North,0,1.0,5.0,43,0.00,OVC,OVC,0.00,WeatherDisplay:10.31,2013-07-17 00:40:00,
2013-07-16 20:50:00,90.7,65.8,30.11,North,360,0.0,3.0,44,0.00,OVC,OVC,0.00,WeatherDisplay:10.31,2013-07-17 00:50:00,
2013-07-16 21:00:00,90.3,66.1,30.11,North,360,1.0,3.0,45,0.00,OVC,OVC,0.00,WeatherDisplay:10.31,2013-07-17 01:00:00,
2013-07-16 21:05:00,90.1,65.9,30.11,North,360,0.0,3.0,45,0.00,OVC,OVC,0.00,WeatherDisplay:10.31,2013-07-17 01:05:00,
2013-07-16 21:10:00,89.9,66.3,30.11,North,360,0.0,2.0,46,0.00,OVC,OVC,0.00,WeatherDisplay:10.31,2013-07-17 01:10:00,
2013-07-16 21:15:00,89.7,66.1,30.11,North,360,0.0,1.0,46,0.00,OVC,OVC,0.00,WeatherDisplay:10.31,2013-07-17 01:15:00,
2013-07-16 21:20:00,89.4,66.5,30.11,North,360,0.0,0.0,47,0.00,OVC,OVC,0.00,WeatherDisplay:10.31,2013-07-17 01:20:00,
2013-07-16 21:25:00,89.0,66.2,30.11,North,360,0.0,1.0,47,0.00,OVC,OVC,0.00,WeatherDisplay:10.31,2013-07-17 01:25:00,
2013-07-16 21:30:00,88.8,66.0,30.11,North,360,0.0,0.0,47,0.00,OVC,OVC,0.00,WeatherDisplay:10.31,2013-07-17 01:30:00,
2013-07-16 21:35:00,88.6,66.4,30.11,North,360,0.0,1.0,48,0.00,OVC,OVC,0.00,WeatherDisplay:10.31,2013-07-17 01:35:00,
2013-07-16 21:40:00,88.2,66.0,30.12,North,360,0.0,0.0,48,0.00,OVC,OVC,0.00,WeatherDisplay:10.31,2013-07-17 01:40:00,
2013-07-16 21:50:00,87.8,66.3,30.12,North,360,0.0,0.0,49,0.00,OVC,OVC,0.00,WeatherDisplay:10.31,2013-07-17 01:50:00,
2013-07-16 22:00:00,87.6,66.7,30.12,North,360,0.0,1.0,50,0.00,OVC,OVC,0.00,WeatherDisplay:10.31,2013-07-17 02:00:00,
2013-07-16 22:05:00,87.4,65.9,30.12,North,360,0.0,0.0,49,0.00,OVC,OVC,0.00,WeatherDisplay:10.31,2013-07-17 02:05:00,
2013-07-16 22:10:00,87.2,66.3,30.12,North,360,0.0,1.0,50,0.00,OVC,OVC,0.00,WeatherDisplay:10.31,2013-07-17 02:10:00,
2013-07-16 22:20:00,86.7,65.3,30.12,North,360,0.0,0.0,49,0.00,OVC,OVC,0.00,WeatherDisplay:10.31,2013-07-17 02:20:00,
2013-07-16 22:30:00,86.5,66.2,30.12,North,360,0.0,0.0,51,0.00,OVC,OVC,0.00,WeatherDisplay:10.31,2013-07-17 02:30:00,
2013-07-16 22:40:00,86.1,66.4,30.13,North,360,0.0,0.0,52,0.00,OVC,OVC,0.00,WeatherDisplay:10.31,2013-07-17 02:40:00,
2013-07-16 22:50:00,85.7,66.0,30.13,North,360,0.0,0.0,52,0.00,OVC,OVC,0.00,WeatherDisplay:10.31,2013-07-17 02:50:00,
2013-07-16 23:00:00,85.3,66.2,30.12,North,360,0.0,0.0,53,0.00,OVC,OVC,0.00,WeatherDisplay:10.31,2013-07-17 03:00:00,
2013-07-16 23:05:00,85.1,66.0,30.12,North,360,0.0,0.0,53,0.00,OVC,OVC,0.00,WeatherDisplay:10.31,2013-07-17 03:05:00,
2013-07-16 23:10:00,84.9,65.9,30.12,North,360,0.0,0.0,53,0.00,OVC,OVC,0.00,WeatherDisplay:10.31,2013-07-17 03:10:00,
2013-07-16 23:20:00,84.7,66.7,30.13,North,360,0.0,1.0,55,0.00,OVC,OVC,0.00,WeatherDisplay:10.31,2013-07-17 03:20:00,
2013-07-16 23:30:00,84.1,66.7,30.13,North,360,0.0,2.0,56,0.00,OVC,OVC,0.00,WeatherDisplay:10.31,2013-07-17 03:30:00,
2013-07-16 23:40:00,83.4,67.6,30.13,North,360,0.0,2.0,59,0.00,OVC,OVC,0.00,WeatherDisplay:10.31,2013-07-17 03:40:00,
2013-07-16 23:50:00,82.8,67.5,30.13,North,360,1.0,2.0,60,0.00,OVC,OVC,0.00,WeatherDisplay:10.31,2013-07-17 03:50:00,